Вернуться в каталог

THORAD AGENA D DEB

АктивенSSO
NORAD 4946·DEBRIS·🇺🇸 United States

Запущен Apr 8, 1970 с Vandenberg Space Force Base

Loading…

Ближайшие Пролёты (ближайшие 24 часа)

TLE

СвежийSource: Space-Track

Эпоха: Sep 14, 2026, 14:20 UTC

1  4946U 70025GG  26257.59766296  .00000680  00000-0  65376-3 0  9993
2  4946  99.6760  25.4151 0016273 100.8231 324.1266 13.83969215815379

Отслеживайте THORAD AGENA D DEB в реальном времени с AllMySat

Download on the App Store